Weather History for Thomson, GA

Change the Weather History Date:

Saturday, January 19, 2013

  Actual Average (KDBN) Record (KDBN)
Temperature  
Mean Temperature 40 °F -  
Max Temperature 58 °F 59 °F 79 °F (1937)
Min Temperature 23 °F 35 °F 4 °F (1977)
Degree Days  
Heating Degree Days 24    
Moisture  
Dew Point 34 °F    
Average Humidity 83    
Maximum Humidity 100    
Minimum Humidity 45    
Precipitation  
Precipitation 0.00 in - - ()
Sea Level Pressure  
Sea Level Pressure 30.40 in    
Wind  
Wind Speed 0 mph (South)    
Max Wind Speed 5 mph    
Max Gust Speed -    
Visibility 10 miles    
Events      
Averages and records for this station are not official NWS values.
T = Trace of Precipitation, MM = Missing Value Source: NWS Daily Summary

Daily Weather History Graph

Daily Weather History Graph

Search for Another Location

Airport:

Trip Planner

Search our weather history database for the weather conditions in past years. The results will help you decide how hot, cold, wet, or windy it might be!

Date:

Astronomy

Jan. 19, 2013 Rise Set
Actual Time 7:33 AM EST 5:49 PM EST
Civil Twilight 7:06 AM EST 6:15 PM EST
Nautical Twilight 6:35 AM EST 6:46 PM EST
Astronomical Twilight 6:06 AM EST 7:15 PM EST
Moon 12:11 PM EST (1/19) 1:10 AM EST (1/19)
Length of Visible Light 11h 09m
Length of Day
10h 16m
First Quarter, 57% of the Moon is Illuminated
Jan 19
First Quarter
Jan 26
Full
Feb 3
Last Quarter
Feb 10
New
Feb 17
First Quarter

Hourly Weather History & Observations

Time (EST) Temp. Windchill Dew Point Humidity Pressure Visibility Wind Dir Wind Speed Gust Speed Precip Events Conditions
12:15 AM 29.8 °F - 29.8 °F 100% 30.53 in 10.0 mi Calm Calm - N/A   Clear
12:35 AM 29.7 °F - 29.7 °F 100% 30.53 in 10.0 mi Calm Calm - N/A   Clear
12:55 AM 29.1 °F - 29.1 °F 100% 30.53 in 10.0 mi Calm Calm - N/A   Clear
1:15 AM 29.1 °F - 29.1 °F 100% 30.53 in 10.0 mi Calm Calm - N/A   Clear
1:35 AM 28.9 °F - 28.9 °F 100% 30.53 in 10.0 mi Calm Calm - N/A   Clear
1:55 AM 28.9 °F - 28.9 °F 100% 30.53 in 10.0 mi Calm Calm - N/A   Clear
2:15 AM 28.0 °F - 28.0 °F 100% 30.53 in 10.0 mi Calm Calm - N/A   Clear
2:35 AM 27.9 °F - 27.9 °F 100% 30.52 in 10.0 mi Calm Calm - N/A   Clear
2:55 AM 27.5 °F - 27.5 °F 100% 30.52 in 10.0 mi Calm Calm - N/A   Clear
3:15 AM 27.1 °F - 27.1 °F 100% 30.51 in 10.0 mi Calm Calm - N/A   Clear
3:35 AM 26.6 °F - 26.6 °F 100% 30.50 in 10.0 mi Calm Calm - N/A   Clear
3:55 AM 26.6 °F - 26.6 °F 100% 30.50 in 10.0 mi Calm Calm - N/A   Clear
4:15 AM 25.2 °F - 25.2 °F 100% 30.49 in 10.0 mi Calm Calm - N/A   Clear
4:35 AM 25.7 °F - 25.7 °F 100% 30.49 in 10.0 mi Calm Calm - N/A   Clear
4:55 AM 25.7 °F - 25.7 °F 100% 30.49 in 10.0 mi Calm Calm - N/A   Clear
5:15 AM 25.2 °F - 25.2 °F 100% 30.48 in 10.0 mi Calm Calm - N/A   Clear
5:35 AM 25.2 °F - 25.2 °F 100% 30.48 in 10.0 mi Calm Calm - N/A   Clear
5:55 AM 25.3 °F - 25.3 °F 100% 30.48 in 10.0 mi Calm Calm - N/A   Clear
6:15 AM 24.8 °F - 24.8 °F 100% 30.48 in 10.0 mi Calm Calm - N/A   Clear
6:35 AM 23.7 °F - 23.7 °F 100% 30.48 in 10.0 mi Calm Calm - N/A   Clear
7:35 AM 23.9 °F - 23.9 °F 100% 30.49 in 10.0 mi Calm Calm - N/A   Clear
7:55 AM 24.6 °F - 24.6 °F 100% 30.49 in 10.0 mi Calm Calm - N/A   Clear
8:15 AM 25.7 °F - 25.7 °F 100% 30.49 in 10.0 mi Calm Calm - N/A   Clear
8:55 AM 29.7 °F - 29.7 °F 100% 30.49 in 10.0 mi Calm Calm - N/A   Clear
9:15 AM 32.0 °F - 32.0 °F 100% 30.49 in 10.0 mi Calm Calm - N/A   Clear
9:35 AM 35.8 °F - 35.6 °F 99% 30.50 in 10.0 mi Calm Calm - N/A   Clear
10:35 AM 43.7 °F 42.1 °F 33.4 °F 67% 30.50 in 10.0 mi ENE 3.5 mph - N/A   Clear
10:55 AM 46.0 °F - 33.6 °F 62% 30.50 in 10.0 mi Calm Calm - N/A   Clear
11:15 AM 46.4 °F - 32.4 °F 58% 30.49 in 10.0 mi Calm Calm - N/A   Clear
11:35 AM 48.2 °F - 31.8 °F 53% 30.48 in 10.0 mi Calm Calm - N/A   Clear
12:15 PM 50.0 °F - 30.9 °F 48% 30.44 in 10.0 mi ESE 3.5 mph - N/A   Clear
12:35 PM 52.5 °F - 32.0 °F 46% 30.42 in 10.0 mi SE 3.5 mph - N/A   Clear
12:55 PM 52.3 °F - 32.0 °F 46% 30.40 in 10.0 mi Calm Calm - N/A   Clear
1:15 PM 54.0 °F - 33.1 °F 45% 30.39 in 10.0 mi SSW 4.6 mph - N/A   Clear
1:35 PM 54.5 °F - 33.8 °F 46% 30.37 in 10.0 mi Calm Calm - N/A   Clear
1:55 PM 55.4 °F - 34.2 °F 45% 30.36 in 10.0 mi South 3.5 mph - N/A   Clear
2:15 PM 55.8 °F - 35.2 °F 46% 30.34 in 10.0 mi ESE 3.5 mph - N/A   Clear
2:35 PM 57.0 °F - 37.0 °F 47% 30.34 in 10.0 mi West 3.5 mph - N/A   Clear
2:55 PM 58.5 °F - 38.8 °F 48% 30.33 in 10.0 mi West 3.5 mph - N/A   Clear
3:15 PM 58.3 °F - 38.7 °F 48% 30.32 in 10.0 mi SSW 4.6 mph - N/A   Clear
3:35 PM 58.3 °F - 39.2 °F 49% 30.32 in 10.0 mi Calm Calm - N/A   Clear
3:55 PM 57.7 °F - 39.6 °F 51% 30.31 in 10.0 mi Calm Calm - N/A   Clear
4:15 PM 57.2 °F - 39.4 °F 51% 30.31 in 10.0 mi Calm Calm - N/A   Clear
4:35 PM 57.9 °F - 40.6 °F 53% 30.31 in 10.0 mi Calm Calm - N/A   Clear
4:55 PM 58.1 °F - 40.6 °F 52% 30.31 in 10.0 mi WSW 3.5 mph - N/A   Clear
5:15 PM 56.5 °F - 40.8 °F 56% 30.31 in 10.0 mi Calm Calm - N/A   Clear
5:35 PM 55.2 °F - 41.5 °F 60% 30.30 in 10.0 mi Calm Calm - N/A   Clear
5:55 PM 52.7 °F - 41.9 °F 67% 30.30 in 10.0 mi Calm Calm - N/A   Clear
6:15 PM 49.6 °F - 41.9 °F 75% 30.30 in 10.0 mi Calm Calm - N/A   Clear
6:35 PM 47.8 °F - 41.2 °F 78% 30.30 in 10.0 mi Calm Calm - N/A   Clear
6:55 PM 46.4 °F - 41.4 °F 83% 30.31 in 10.0 mi Calm Calm - N/A   Clear
7:15 PM 44.1 °F - 41.4 °F 90% 30.31 in 10.0 mi Calm Calm - N/A   Clear
7:35 PM 42.8 °F - 41.7 °F 96% 30.31 in 10.0 mi Calm Calm - N/A   Clear
7:55 PM 42.8 °F - 41.2 °F 94% 30.31 in 10.0 mi Calm Calm - N/A   Clear
8:15 PM 41.9 °F - 40.6 °F 95% 30.31 in 10.0 mi Calm Calm - N/A   Clear
8:35 PM 40.1 °F - 39.9 °F 99% 30.32 in 10.0 mi Calm Calm - N/A   Clear
8:55 PM 40.1 °F - 40.1 °F 100% 30.32 in 10.0 mi Calm Calm - N/A   Clear
9:15 PM 39.2 °F - 39.2 °F 100% 30.32 in 10.0 mi Calm Calm - N/A   Clear
9:35 PM 38.7 °F - 38.7 °F 100% 30.30 in 10.0 mi Calm Calm - N/A   Clear
9:55 PM 37.8 °F - 37.8 °F 100% 30.30 in 10.0 mi Calm Calm - N/A   Clear
10:15 PM 38.3 °F - 38.3 °F 100% 30.30 in 10.0 mi Calm Calm - N/A   Clear
10:35 PM 37.6 °F - 37.6 °F 100% 30.30 in 10.0 mi Calm Calm - N/A   Clear
10:55 PM 37.4 °F - 37.4 °F 100% 30.29 in 10.0 mi Calm Calm - N/A   Clear
11:15 PM 37.4 °F - 37.4 °F 100% 30.28 in 10.0 mi Calm Calm - N/A   Clear
11:35 PM 36.9 °F - 36.9 °F 100% 30.28 in 10.0 mi Calm Calm - N/A   Clear
11:55 PM 36.5 °F - 36.5 °F 100% 30.27 in 10.0 mi Calm Calm - N/A   Clear